Location: Caltech
(34.1382°N, 118.1253°W)
Time: 21:24:13
(UTC-07:00)

Iridium 72 - Visible Passes

Search period start: 04 July 2015 00:00
Search period end: 14 July 2015 00:00
Orbit: 776 x 779 km, 86.4° (Epoch: 04 July)

Date Brightness Start Highest point End Pass type
(mag) Time Alt. Az. Time Alt. Az. Time Alt. Az.
04 Jul 5.5 04:41:46 10° N 04:47:00 82° W 04:52:12 10° S visible
05 Jul 6.3 04:08:23 10° N 04:13:27 51° E 04:18:30 10° SSE visible
06 Jul 7.5 03:35:27 10° NNE 03:39:45 26° E 03:44:08 10° SE visible
06 Jul 6.5 05:16:01 10° NNW 05:20:27 28° W 05:24:47 10° SW visible
07 Jul 8.2 03:03:26 10° NE 03:05:52 14° ENE 03:08:36 10° ESE visible
07 Jul 5.7 04:41:58 10° NNW 04:47:03 55° W 04:52:07 10° SSW visible
08 Jul 5.6 04:08:22 10° N 04:13:35 77° E 04:18:48 10° S visible
09 Jul 6.8 03:35:08 10° NNE 03:39:58 39° E 03:44:51 10° SSE visible
09 Jul 7.0 05:16:46 10° NW 05:20:27 19° W 05:23:56 10° SW visible
10 Jul 7.7 03:02:27 10° NNE 03:06:12 20° ENE 03:10:07 10° SE visible
10 Jul 6.2 04:42:20 10° NNW 04:47:06 36° W 04:51:25 12° SSW visible
11 Jul 8.4 02:32:00 10° ENE 02:32:15 10° ENE 02:32:56 10° E visible
11 Jul 5.5 04:08:28 10° N 04:13:40 72° W 04:17:25 19° S visible
12 Jul 6.0 03:35:01 10° N 03:40:09 59° E 03:43:27 22° SSE visible
12 Jul 7.4 05:18:06 10° NW 05:20:25 13° W 05:22:24 10° WSW visible
13 Jul 7.1 03:01:58 10° NNE 03:06:29 30° E 03:09:31 18° SE visible
13 Jul 6.7 04:42:53 10° NNW 04:47:06 25° W 04:49:57 15° SW visible
